TimeCDT,TemperatureF,Dew PointF,Humidity,Sea Level PressureIn,VisibilityMPH,Wind Direction,Wind SpeedMPH,Gust SpeedMPH,PrecipitationIn,Events,Conditions,WindDirDegrees,DateUTC
12:15 AM,31.6,26.8,82,30.35,10.0,Calm,Calm,-,N/A,,Mostly Cloudy,0,2013-03-28 05:15:00
12:35 AM,32.4,25.5,76,30.35,10.0,Calm,Calm,-,N/A,,Scattered Clouds,0,2013-03-28 05:35:00
12:55 AM,31.5,27.1,84,30.35,10.0,North,3.5,-,N/A,,Scattered Clouds,350,2013-03-28 05:55:00
1:15 AM,32.0,26.4,80,30.36,10.0,North,3.5,-,N/A,,Scattered Clouds,350,2013-03-28 06:15:00
1:35 AM,32.0,27.9,85,30.36,10.0,North,3.5,-,N/A,,Clear,360,2013-03-28 06:35:00
1:55 AM,30.7,26.1,83,30.36,10.0,North,3.5,-,N/A,,Clear,10,2013-03-28 06:55:00
2:35 AM,28.8,26.6,92,30.35,10.0,Calm,Calm,-,N/A,,Clear,0,2013-03-28 07:35:00
2:55 AM,28.2,26.8,94,30.36,10.0,Calm,Calm,-,N/A,,Clear,0,2013-03-28 07:55:00
3:15 AM,28.8,26.6,92,30.35,10.0,Calm,Calm,-,N/A,,Scattered Clouds,0,2013-03-28 08:15:00
3:35 AM,29.3,27.0,91,30.35,10.0,Calm,Calm,-,N/A,,Scattered Clouds,0,2013-03-28 08:35:00
4:15 AM,30.2,26.6,86,30.35,10.0,Calm,Calm,-,N/A,,Mostly Cloudy,0,2013-03-28 09:15:00
4:35 AM,30.2,26.6,86,30.35,10.0,Calm,Calm,-,N/A,,Overcast,0,2013-03-28 09:35:00
4:55 AM,28.4,26.6,93,30.35,10.0,Calm,Calm,-,N/A,,Mostly Cloudy,0,2013-03-28 09:55:00
5:15 AM,30.2,28.4,93,30.35,10.0,Calm,Calm,-,N/A,,Overcast,0,2013-03-28 10:15:00
5:35 AM,28.4,26.6,93,30.36,7.0,Calm,Calm,-,N/A,,Mostly Cloudy,0,2013-03-28 10:35:00
5:55 AM,28.9,27.0,92,30.37,7.0,Calm,Calm,-,N/A,,Scattered Clouds,0,2013-03-28 10:55:00
6:15 AM,28.4,27.3,96,30.37,7.0,Calm,Calm,-,N/A,,Mostly Cloudy,0,2013-03-28 11:15:00
6:35 AM,28.0,26.6,94,30.37,7.0,Calm,Calm,-,N/A,,Mostly Cloudy,0,2013-03-28 11:35:00
6:55 AM,27.5,26.4,96,30.38,5.0,Calm,Calm,-,N/A,,Scattered Clouds,0,2013-03-28 11:55:00
7:15 AM,29.1,27.3,93,30.38,7.0,Calm,Calm,-,N/A,,Mostly Cloudy,0,2013-03-28 12:15:00
7:35 AM,29.7,27.9,93,30.39,7.0,Calm,Calm,-,N/A,,Overcast,0,2013-03-28 12:35:00
7:55 AM,31.6,29.3,91,30.39,7.0,Calm,Calm,-,N/A,,Scattered Clouds,0,2013-03-28 12:55:00
8:15 AM,32.4,28.6,86,30.40,10.0,Calm,Calm,-,N/A,,Clear,0,2013-03-28 13:15:00
8:35 AM,33.4,26.6,76,30.40,10.0,ENE,4.6,-,N/A,,Clear,60,2013-03-28 13:35:00
8:55 AM,34.7,26.8,73,30.41,10.0,East,4.6,-,N/A,,Clear,80,2013-03-28 13:55:00
9:15 AM,36.5,26.6,67,30.40,10.0,East,5.8,-,N/A,,Clear,80,2013-03-28 14:15:00
9:35 AM,37.8,28.0,68,30.40,10.0,ESE,4.6,-,N/A,,Clear,110,2013-03-28 14:35:00
9:55 AM,38.8,27.9,65,30.41,10.0,SSE,4.6,-,N/A,,Clear,150,2013-03-28 14:55:00
10:15 AM,40.6,27.7,60,30.41,10.0,ESE,5.8,-,N/A,,Clear,110,2013-03-28 15:15:00
10:35 AM,41.5,27.5,57,30.40,10.0,ESE,6.9,-,N/A,,Clear,120,2013-03-28 15:35:00
10:55 AM,42.6,27.0,54,30.41,10.0,ESE,6.9,-,N/A,,Clear,120,2013-03-28 15:55:00
11:15 AM,43.3,27.5,54,30.41,10.0,ESE,5.8,-,N/A,,Clear,110,2013-03-28 16:15:00
11:35 AM,44.2,26.6,50,30.41,10.0,ESE,8.1,-,N/A,,Clear,120,2013-03-28 16:35:00
11:55 AM,45.1,27.3,50,30.40,10.0,ESE,6.9,-,N/A,,Clear,110,2013-03-28 16:55:00
12:15 PM,45.7,28.8,52,30.40,10.0,SSE,6.9,-,N/A,,Clear,150,2013-03-28 17:15:00
12:35 PM,46.0,27.5,48,30.39,10.0,SSE,4.6,-,N/A,,Clear,150,2013-03-28 17:35:00
12:55 PM,46.6,27.7,48,30.38,10.0,East,4.6,-,N/A,,Clear,100,2013-03-28 17:55:00
1:15 PM,47.5,28.4,48,30.37,10.0,SSE,5.8,-,N/A,,Clear,150,2013-03-28 18:15:00
1:35 PM,48.6,28.6,46,30.36,10.0,East,6.9,-,N/A,,Clear,90,2013-03-28 18:35:00
1:55 PM,48.7,25.7,41,30.35,10.0,SE,4.6,-,N/A,,Clear,130,2013-03-28 18:55:00
2:15 PM,48.6,26.6,42,30.35,10.0,Calm,Calm,-,N/A,,Unknown,0,2013-03-28 19:15:00
2:35 PM,49.3,25.9,40,30.34,10.0,Calm,Calm,-,N/A,,Clear,0,2013-03-28 19:35:00
2:55 PM,50.9,28.2,42,30.33,10.0,SE,3.5,-,N/A,,Clear,140,2013-03-28 19:55:00
3:15 PM,50.7,27.5,41,30.32,10.0,Calm,Calm,-,N/A,,Clear,0,2013-03-28 20:15:00
3:35 PM,51.1,27.7,40,30.32,10.0,Calm,Calm,-,N/A,,Clear,0,2013-03-28 20:35:00
3:55 PM,51.3,28.0,41,30.31,10.0,Calm,Calm,-,N/A,,Clear,0,2013-03-28 20:55:00
4:15 PM,52.0,29.7,42,30.31,10.0,Calm,Calm,-,N/A,,Clear,0,2013-03-28 21:15:00
4:35 PM,52.9,30.0,42,30.30,10.0,East,3.5,-,N/A,,Clear,100,2013-03-28 21:35:00
4:55 PM,52.2,28.6,40,30.30,10.0,East,5.8,-,N/A,,Clear,100,2013-03-28 21:55:00
5:15 PM,52.0,28.2,40,30.30,10.0,Calm,Calm,-,N/A,,Clear,0,2013-03-28 22:15:00
5:35 PM,52.0,29.7,42,30.30,10.0,SSE,4.6,-,N/A,,Scattered Clouds,160,2013-03-28 22:35:00
5:55 PM,51.6,29.3,42,30.30,10.0,ESE,5.8,-,N/A,,Scattered Clouds,110,2013-03-28 22:55:00
6:15 PM,51.1,29.3,43,30.30,10.0,East,5.8,-,N/A,,Scattered Clouds,80,2013-03-28 23:15:00
6:35 PM,50.4,29.7,45,30.29,10.0,East,4.6,-,N/A,,Scattered Clouds,90,2013-03-28 23:35:00
6:55 PM,49.3,30.7,49,30.30,10.0,East,3.5,-,N/A,,Scattered Clouds,100,2013-03-28 23:55:00
7:15 PM,49.1,30.6,49,30.30,10.0,East,3.5,-,N/A,,Mostly Cloudy,80,2013-03-29 00:15:00
7:35 PM,48.7,29.5,47,30.30,10.0,East,3.5,-,N/A,,Mostly Cloudy,80,2013-03-29 00:35:00
7:55 PM,47.8,30.4,51,30.30,10.0,East,4.6,-,N/A,,Mostly Cloudy,80,2013-03-29 00:55:00
8:15 PM,46.0,32.0,58,30.30,10.0,Calm,Calm,-,N/A,,Overcast,0,2013-03-29 01:15:00
8:35 PM,44.8,34.2,66,30.31,10.0,Calm,Calm,-,N/A,,Overcast,0,2013-03-29 01:35:00
8:55 PM,44.1,35.2,71,30.32,10.0,Calm,Calm,-,N/A,,Mostly Cloudy,0,2013-03-29 01:55:00
9:15 PM,46.8,31.1,55,30.32,10.0,Calm,Calm,-,N/A,,Overcast,0,2013-03-29 02:15:00
9:35 PM,46.6,31.6,56,30.32,10.0,East,3.5,-,N/A,,Overcast,90,2013-03-29 02:35:00
9:55 PM,45.9,30.0,54,30.32,10.0,East,3.5,-,N/A,,Mostly Cloudy,90,2013-03-29 02:55:00
10:15 PM,43.9,31.1,61,30.32,10.0,East,3.5,-,N/A,,Scattered Clouds,100,2013-03-29 03:15:00
10:35 PM,41.7,32.7,70,30.31,10.0,ESE,3.5,-,N/A,,Scattered Clouds,110,2013-03-29 03:35:00
10:55 PM,44.1,29.3,56,30.31,10.0,Calm,Calm,-,N/A,,Scattered Clouds,0,2013-03-29 03:55:00
11:15 PM,43.9,28.6,55,30.31,10.0,East,3.5,-,N/A,,Mostly Cloudy,90,2013-03-29 04:15:00
11:35 PM,41.0,31.5,69,30.31,10.0,ESE,3.5,-,N/A,,Mostly Cloudy,110,2013-03-29 04:35:00
11:55 PM,40.8,31.3,69,30.30,10.0,East,3.5,-,N/A,,Scattered Clouds,100,2013-03-29 04:55:00